Weather in Yasnyye Polyany

Russia / Chelyabinsk Oblast     54°11′25″N   61°24′06″E
temp.,
°C
wind,
m/s
gust,
m/s
humid.,
%
clouds,
%
prec.,
mm/h
press.,
hPa
HPBL,
m
25 february, thu
thu2523:00−22n81491100 0.3 1018977
02:00−23n81491100 0.1 1020800
05:00−25n61392100 0.1 1023613
08:00−26nnw61291100 0.0 1026408
11:00−24nnw6108868 0.0 1028389
14:00−20nnw47860 0.0 1029418
17:00−20wnw22890 0.0 102920
20:00−24sw23900 0.0 103120
26 february, fri
fri2623:00−25wsw22850 0.0 103120
02:00−26ssw23790 0.0 103019
05:00−28s23860 0.0 103119
08:00−29s23960 0.0 103019
11:00−24s34965 0.0 1030166
14:00−22s349472 0.0 1029256
17:00−22s359371 0.0 1028150
20:00−26s469459 0.0 102883
27 february, sat
sat2723:00−26s479532 0.0 102795
02:00−26s469927 0.0 102592
05:00−26sse489951 0.0 1023137
08:00−23sse5109797 0.1 1020321
11:00−18sse7129599 0.1 1017471
14:00−13sse81494100 0.7 1013659
17:00−9sse71294100 2.6 1009850
20:00−6sse61195100 1.4 1001484
28 february, sun
sun2823:00−5se3797100 1.9 1000195
02:00−4se2298100 1.3 99870
05:00−5wsw4696100 1.8 998179
08:00−7w1297100 0.7 99923
11:00−5nw1295100 1.0 999137
14:00−3n239399 0.2 1000283
17:00−5nne579498 0.3 1001335
20:00−9nne6109495 0.2 1004320
1 march, mon
mon123:00−14n6109496 0.4 1007313
02:00−18n5996100 0.1 1009257
05:00−21n499799 0.1 1012215
08:00−21nnw389888 0.0 1015222
11:00−20n469587 0.1 1016268
14:00−17n348868 0.0 1018318
17:00−17n129383 0.0 101938
20:00−20nne119882 0.0 102020